TimeEDT,TemperatureF,Dew PointF,Humidity,Sea Level PressureIn,VisibilityMPH,Wind Direction,Wind SpeedMPH,Gust SpeedMPH,PrecipitationIn,Events,Conditions,WindDirDegrees,DateUTC
12:54 AM,43.0,37.9,82,30.20,10.0,Calm,Calm,-,N/A,,Overcast,0,2013-03-30 04:54:00
1:54 AM,43.0,35.1,74,30.19,10.0,NNE,3.5,-,N/A,,Overcast,20,2013-03-30 05:54:00
2:54 AM,43.0,37.9,82,30.19,10.0,NNW,4.6,-,N/A,,Overcast,330,2013-03-30 06:54:00
3:54 AM,39.0,32.0,76,30.19,10.0,Calm,Calm,-,N/A,,Partly Cloudy,0,2013-03-30 07:54:00
4:54 AM,37.9,30.9,76,30.19,10.0,Calm,Calm,-,N/A,,Mostly Cloudy,0,2013-03-30 08:54:00
5:54 AM,39.9,34.0,79,30.19,10.0,Calm,Calm,-,N/A,,Overcast,0,2013-03-30 09:54:00
6:54 AM,41.0,35.1,79,30.21,10.0,Calm,Calm,-,N/A,,Overcast,0,2013-03-30 10:54:00
7:54 AM,42.1,37.0,82,30.23,10.0,NW,4.6,-,N/A,,Overcast,320,2013-03-30 11:54:00
8:54 AM,45.0,36.0,71,30.23,10.0,Calm,Calm,-,N/A,,Overcast,0,2013-03-30 12:54:00
9:54 AM,48.9,36.0,61,30.23,10.0,Calm,Calm,-,N/A,,Scattered Clouds,0,2013-03-30 13:54:00
10:54 AM,50.0,36.0,59,30.23,10.0,SE,9.2,-,N/A,,Clear,140,2013-03-30 14:54:00
11:54 AM,50.0,33.1,52,30.21,10.0,ESE,9.2,-,N/A,,Partly Cloudy,120,2013-03-30 15:54:00
12:54 PM,51.1,34.0,52,30.20,10.0,SE,9.2,-,N/A,,Mostly Cloudy,130,2013-03-30 16:54:00
1:54 PM,51.1,35.1,54,30.18,10.0,SE,9.2,-,N/A,,Mostly Cloudy,130,2013-03-30 17:54:00
2:54 PM,50.0,35.1,57,30.16,10.0,SE,8.1,-,N/A,,Clear,130,2013-03-30 18:54:00
3:54 PM,51.1,36.0,56,30.14,10.0,SE,8.1,-,N/A,,Clear,130,2013-03-30 19:54:00
4:54 PM,53.1,35.1,50,30.14,10.0,SE,10.4,-,N/A,,Clear,140,2013-03-30 20:54:00
5:54 PM,51.1,37.0,59,30.13,10.0,SE,10.4,-,N/A,,Clear,130,2013-03-30 21:54:00
6:54 PM,50.0,37.9,63,30.14,10.0,SE,8.1,-,N/A,,Clear,140,2013-03-30 22:54:00
7:54 PM,48.0,34.0,58,30.14,10.0,SE,4.6,-,N/A,,Clear,130,2013-03-30 23:54:00
8:54 PM,46.0,37.9,73,30.15,9.0,Calm,Calm,-,N/A,,Clear,0,2013-03-31 00:54:00
9:54 PM,48.0,32.0,54,30.16,10.0,SSE,3.5,-,N/A,,Clear,160,2013-03-31 01:54:00
10:54 PM,45.0,39.9,82,30.16,10.0,SE,4.6,-,N/A,,Clear,130,2013-03-31 02:54:00
11:54 PM,45.0,39.0,80,30.14,10.0,ESE,4.6,-,N/A,,Clear,120,2013-03-31 03:54:00